Date,TemperatureHighF,TemperatureAvgF,TemperatureLowF,DewpointHighF,DewpointAvgF,DewpointLowF,HumidityHigh,HumidityAvg,HumidityLow,PressureMaxIn,PressureMinIn,WindSpeedMaxMPH,WindSpeedAvgMPH,GustSpeedMaxMPH,PrecipitationSumIn
2013-1-1,80.1,73.1,66.9,72.9,69.3,66.6,99,88,77,29.93,29.78,12,3,20,0.00
2013-1-10,81.5,76.8,71.1,78.6,74.9,70.8,99,94,80,30.03,29.91,9,3,17,0.00
2013-1-11,83.1,76.2,69.6,79.3,75.0,69.3,99,96,83,30.00,29.88,11,3,16,0.00
2013-1-12,84.7,74.9,67.5,82.6,73.6,67.2,99,96,82,29.92,29.82,11,2,17,0.00
2013-1-13,83.3,73.7,66.2,78.5,71.9,65.9,99,95,73,29.86,29.81,12,2,23,0.00
2013-1-14,81.1,72.9,64.8,77.4,70.5,64.5,99,93,79,29.91,29.85,12,2,18,0.00
2013-1-15,86.7,72.3,64.4,83.8,71.3,64.1,99,97,81,29.88,29.78,8,2,16,0.00
2013-1-16,86.4,72.4,63.3,85.2,71.9,63.0,99,98,91,29.84,29.75,10,2,17,0.00
2013-1-17,84.4,71.7,61.0,84.1,71.4,60.7,99,99,93,29.85,29.71,11,2,24,0.08
2013-1-18,70.3,63.1,54.7,69.2,61.6,54.4,99,95,81,30.00,29.85,8,2,16,0.00
2013-1-19,73.9,67.6,62.4,73.6,67.4,62.1,99,99,99,29.96,29.83,7,1,11,0.06
2013-1-20,82.6,71.5,64.6,78.9,70.4,64.3,99,97,75,29.90,29.74,4,1,9,0.00
2013-1-21,81.9,73.3,66.4,80.8,72.7,66.1,99,98,91,29.81,29.69,9,1,14,0.00
2013-1-22,77.4,68.4,62.1,71.5,66.5,61.8,99,94,77,29.96,29.75,11,3,19,0.00
2013-1-23,76.5,66.4,60.4,68.6,63.2,60.2,99,91,64,30.04,29.93,8,2,15,0.00
2013-1-24,78.8,66.1,56.7,65.6,61.3,56.4,99,86,64,30.04,29.93,7,2,14,0.00
2013-1-25,81.3,66.8,57.2,67.2,62.1,56.9,99,87,56,30.04,29.91,7,1,13,0.00
2013-1-26,81.5,67.3,57.6,70.7,64.2,57.3,99,91,67,30.00,29.89,8,1,13,0.00
2013-1-27,80.4,70.9,61.9,76.2,68.8,61.6,99,94,73,30.02,29.94,8,2,14,0.00
2013-1-28,81.5,75.2,69.4,76.3,72.5,69.1,99,92,74,30.05,29.95,10,3,22,0.00
2013-1-29,84.4,74.7,67.1,83.0,74.2,66.8,99,98,90,29.98,29.86,12,3,19,0.09
2013-1-30,79.7,74.9,70.7,77.1,73.6,70.4,99,96,86,29.86,29.71,14,5,24,0.00
2013-1-31,77.4,68.7,60.3,77.1,67.8,52.5,99,97,76,29.92,29.70,8,2,17,0.00
2013-2-1,75.0,63.4,52.3,63.4,57.2,46.6,99,81,63,30.01,29.91,10,4,17,0.00
2013-2-2,77.9,64.7,55.8,63.6,58.0,46.4,99,81,59,30.01,29.86,8,1,14,0.00
2013-2-3,75.9,63.8,54.5,64.5,55.9,47.8,99,79,45,29.92,29.80,11,1,14,0.00
2013-2-4,75.6,62.7,50.7,62.7,56.1,48.8,99,82,48,29.90,29.77,8,1,14,0.00
2013-2-5,82.4,67.9,55.6,72.1,64.5,55.3,99,90,68,29.83,29.74,8,1,14,0.00
2013-2-6,81.1,70.3,61.3,77.6,68.7,61.1,99,95,77,29.85,29.77,7,1,10,0.00
2013-2-7,84.7,73.0,62.2,79.8,69.9,62.0,99,91,70,29.82,29.68,11,2,17,0.00
2013-2-8,87.4,74.4,67.8,83.7,73.7,67.3,99,98,79,29.78,29.66,8,1,11,0.07
2013-2-9,81.0,71.6,62.8,78.9,70.2,62.5,99,96,82,29.91,29.76,6,2,14,0.00
2013-2-10,79.7,72.7,66.6,74.3,70.7,66.3,99,94,71,29.98,29.88,9,3,23,0.00
2013-2-11,80.1,73.1,64.8,76.7,72.0,64.5,99,97,85,29.96,29.85,10,4,17,0.00
2013-2-12,86.9,74.0,63.3,79.8,72.0,63.0,99,94,66,29.86,29.70,11,3,18,0.00
2013-2-13,88.2,77.0,67.6,83.4,75.9,67.3,99,96,78,29.75,29.64,13,2,18,0.00
2013-2-14,88.3,74.9,62.4,83.9,73.6,62.1,99,96,75,29.76,29.59,11,2,20,0.37
2013-2-15,73.4,66.7,63.0,73.1,66.4,62.7,99,99,99,29.75,29.68,6,2,11,0.70
2013-2-16,77.9,66.7,55.0,74.4,62.5,54.2,99,88,50,29.83,29.62,4,1,14,0.02
2013-2-17,61.9,52.7,46.6,54.9,40.3,31.8,99,66,40,30.06,29.83,14,4,25,0.00
2013-2-18,70.3,60.5,47.5,64.9,53.7,42.4,94,79,63,30.06,29.94,8,2,17,0.00
2013-2-19,81.3,70.2,58.1,78.0,68.7,57.8,99,95,77,29.94,29.82,12,3,21,0.00
2013-2-20,81.0,72.2,65.1,77.6,69.6,64.8,99,93,72,29.86,29.75,8,2,14,0.00